SCP
0 0 0 0 0 0 0 0 0 0 0 0 0 0 0 0 0 0 0 0 0 0 0 0 0 0 0 0 0 0 0 0 0 0 0 0 0 0 0 0 0 0 0
0 0 0 0 0 0 0 0 0 0 0 0 0 0 0 0 0 0 0 0 0 0 0 0 0 0 0 0 0 0 0 0 0 0 0 0 0 0 0 0 0 0 0
0 0 0 0 0 0 0 0 0 0 0 0 0 0 0 0 0 0 0 0 0 0 0 0 0 0 0 0 0 0 0 0 0 0 0 0 0 0 0 0 0 0 0
0 0 0 0 0 0 0 0 0 0 0 0 0 0 0 0 0 0 0 0 0 0 0 0 0 0 0 0 0 0 0 0 0 0 0 0 0 0 0 0 0 0 0
0 0 0 0 0 0 0 0 0 0 0 0 0 0 0 0 0 0 0 0 0 0 0 0 0 0 0 0 0 0 0 0 0 0 0 0 0 0 0 0 0 0 0
0 0 0 0 0 0 0 0 0 0 0 0 0 0 0 0 0 0 0 0 0 0 0 0 0 0 0 0 0 0 0 0 0 0 0 0 0 0 0 0 0 0 0
0 0 0 0 0 0 0 0 0 0 0 0 0 0 0 0 0 0 0 0 0 0 0 0 0 0 0 0 0 0 0 0 0 0 0 0 0 0 0 0 0 0 0
0 0 0 0 0 0 0 0 0 0 0 0 0 0 0 0 0 0 0 0 0 0 0 0 0 0 0 0 0 0 0 0 0 0 0 0 0 0 0 0 0 0 0
0 0 0 0 0 0 0 0 0 0 0 0 0 0 0 0 0 0 0 0 0 0 0 0 0 0 0 0 0 0 0 0 0 0 0 0 0 0 0 0 0 0 0
0 0 0 0 0 0 0 0 0 0 0 0 0 0 0 0 0 0 0 0 0 0 0 0 0 0 0 0 0 0 0 0 0 0 0 0 0 0 0 0 0 0 0
0 0 0 0 0 0 0 0 0 0 0 0 0 0 0 0 0 0 0 0 0 0 0 0 0 0 0 0 0 0 0 0 0 0 0 0 0 0 0 0 0 0 0
0 0 0 0 0 0 0 0 0 0 0 0 0 0 0 0 0 0 0 0 0 0 0 0 0 0 0 0 0 0 0 0 0 0 0 0 0 0 0 0 0 0 0
0 0 0 0 0 0 0 0 0 0 0 0 -0 0 0 0 0 0 0 0 0 0 0 0 0 0 0 0 0 0 0 0 0 0 0 0 0 0 0 0 0 0 0
0 0 0 0 0 0 0 0 0 0 0 0 0 0 0 0 0 0 0 0 0 0 0 0 0 0 0 0 0 0 0 0 0 0 0 0 0 0 0 0 0 0 0
0 0 0 0 0 0 0 0 0 0 0 0 0 0 0 0 0 0 0 0 0 0 0 0 0 0 0 0 0 0 0 0 0 0 0 0 0 0 0 0 0 0 0
0 0 0 0 0 0 0 0 0 0 0 0 0 0 0 0 0 0 0 0 0 0 0 0 0 0 0 0 0 0 0 0 0 0 0 0 0 0 0 0 0 0 0
0 0 0 0 0 0 0 0 0 0 0 0 0 0 0 0 0 0 0 0 0 0 0 0 0 0 0 0 0 0 0 0 0 0 0 0 0 0 0 0 0 0 0
0 0 0 0 0 0 0 0 0 0 0 0 0 0 0 0 0 0 0 0 0 0 0 0 0 0 0 0 0 0 0 0 0 0 0 0 0 0 0 0 0 0 0
0 0 0 0 0 0 0 0 0 0 0 0 0 0 0 0 0 0 0 0 0 0 0 0 0 0 0 0 0 0 0 0 0 0 0 0 0 0 0 0 0 0 0
0 0 0 0 0 0 0 0 0 0 0 0 0 0 0 0 0 0 0 0 0 0 0 0 0 0 0 0 0 0 0 0 0 0 0 0 0 0 0 0 0 0 0
0 0 0 0 0 0 0 0 0 0 0 0 0 0 0 0 0 0 0 0 0 0 0 0 0 0 0 0 0 0 0 0 0 0 0 0 0 0 0 0 0 0 0
0 0 0 0 0 0 0 0 0 0 0 0 0 0 0 0 0 0 0 0 0 0 0 0 0 0 0 0 0 0 0 0 0 0 0 0 0 0 0 0 0 0 0
0 0 0 0 0 0 0 0 0 0 0 0 0 0 0 0 0 0 0 0 0 0 0 0 0 0 0 0 0 0 0 0 0 0 0 0 0 0 0 0 0 0 0
0 0 0 0 0 0 0 0 0 0 0 0 0 0 0 0 0 0 0 0 0 0 0 0 0 0 0 0 0 0 0 0 0 0 0 0 0 0 0 0 0 0 0
0 0 0 0 0 0 0 0 0 0 0 0 0 0 0 0 0 0 0 0 0 0 0 0 0 0 0 0 0 0 0 0 0 0 0 0 0 0 0 0 0 0 0
0 0 0 0 0 0 0 0 0 0 0 0 0 0 0 0 0 0 0 0 0 0 0 0 0 0 0 0 0 0 0 0 0 0 0 0 0 0 0 0 0 0 0
Wind_Speed
3 4 9 9 8 8 7 7 7 7 7 6 6 6 6 5 6 6 6 6 5 6 6 6 5 5 6 5 5 5 5 5 5 5 5 5 5 6 7 7 7 5 8
7 5 10 9 8 7 7 6 6 6 5 5 5 4 4 4 4 4 4 4 4 4 4 4 4 4 4 4 4 4 4 4 4 4 3 3 3 4 6 7 7 5 8
9 6 8 9 8 7 6 6 5 5 4 4 4 3 3 3 3 3 2 2 2 2 2 2 2 2 2 2 2 2 2 2 3 3 2 0 1 4 6 7 7 7 8
9 7 7 10 8 7 6 5 5 4 4 3 3 2 2 2 1 1 1 1 1 1 1 2 2 2 1 1 1 1 1 1 2 3 1 0 2 5 7 7 7 7 7
8 6 7 10 9 8 6 5 4 4 3 2 2 1 1 1 1 1 1 1 1 1 1 1 2 2 2 1 1 1 1 1 2 2 1 1 1 6 8 7 7 7 7
8 6 7 11 9 8 7 6 4 3 2 1 1 0 1 2 2 3 2 3 3 3 3 2 2 3 3 3 2 2 2 3 2 1 0 2 2 6 8 8 7 7 7
7 6 7 11 10 8 7 6 4 3 2 1 0 1 2 3 4 4 4 4 4 4 4 4 4 4 4 4 4 4 4 4 2 1 1 2 4 8 9 8 8 8 8
9 7 6 10 10 9 7 6 4 3 2 1 1 2 3 4 5 5 5 6 5 5 5 5 6 5 5 5 5 5 5 5 2 1 1 3 6 9 9 8 8 8 8
7 6 5 5 6 8 8 6 5 4 3 3 3 4 5 5 6 6 7 7 7 6 6 6 6 6 7 6 6 7 7 6 2 1 2 2 7 9 9 9 9 8 8
6 6 5 4 3 3 4 6 5 4 3 3 4 5 6 6 7 7 7 7 8 8 8 7 8 8 8 8 8 8 7 5 2 2 2 3 8 10 10 10 9 9 8
5 4 4 4 3 3 4 4 3 4 3 3 4 6 5 3 4 4 6 7 7 8 8 8 8 9 8 8 8 8 6 1 2 2 2 6 9 10 10 10 10 10 9
5 4 4 4 4 3 3 1 1 2 1 2 2 3 2 2 2 3 4 6 6 7 7 8 8 7 5 2 4 6 2 2 2 2 3 7 10 11 11 11 10 10 10
5 5 5 5 4 4 2 1 0 0 0 1 2 1 1 1 2 2 1 3 3 3 3 4 3 2 1 2 2 2 2 2 2 2 3 7 10 11 11 11 10 10 10
6 5 5 5 4 3 2 1 1 1 0 0 1 2 1 1 2 2 1 1 1 1 1 1 1 2 2 2 2 3 2 2 2 2 3 7 8 10 11 11 11 11 11
7 6 5 5 5 3 3 1 2 1 1 1 2 2 2 1 1 2 1 1 2 1 1 1 1 1 1 1 2 3 3 3 2 2 2 6 7 9 11 12 12 11 11
7 6 5 6 5 5 3 2 1 1 1 2 2 3 3 2 1 1 2 2 2 1 1 1 1 1 1 1 1 1 2 2 2 2 2 3 6 7 8 10 11 11 11
8 6 6 6 5 5 4 3 2 2 2 2 2 3 3 2 2 2 2 2 2 2 2 1 2 1 1 0 1 1 1 2 2 2 2 1 2 5 7 8 9 10 11
9 7 6 7 6 5 3 3 2 2 2 2 2 2 3 3 3 2 2 2 2 2 2 1 1 1 1 1 1 1 1 1 1 2 1 1 1 2 4 7 8 8 10
10 8 6 7 6 5 4 3 3 2 2 1 1 2 2 3 3 2 2 2 2 2 2 2 1 1 1 1 1 1 1 1 0 1 1 1 1 1 2 4 7 7 8
9 8 7 7 5 5 4 3 2 3 1 1 1 1 2 2 3 3 2 3 2 2 2 2 1 1 0 1 1 1 0 0 0 1 1 1 1 1 2 2 2 4 7
8 8 7 7 5 4 3 2 2 1 0 0 0 0 1 2 2 2 2 2 2 2 1 2 1 2 2 1 2 2 2 1 0 1 1 1 1 1 1 1 2 2 3
9 8 8 7 6 5 3 3 2 2 1 1 1 1 0 1 2 2 2 2 2 2 3 2 2 1 2 2 2 2 2 3 2 1 0 1 0 0 1 2 2 2 2
9 10 9 7 7 5 4 3 3 2 2 2 1 1 2 1 0 1 2 1 1 1 1 1 1 2 1 2 1 2 2 1 1 2 2 1 1 0 0 1 1 2 3
9 8 9 8 7 6 5 4 4 3 2 2 2 2 2 1 1 1 1 2 1 1 1 1 1 1 2 1 2 1 1 2 2 1 2 2 1 1 0 1 1 2 2
8 8 8 8 7 6 5 6 5 3 2 1 1 1 1 1 2 1 1 1 1 1 1 2 2 2 1 1 1 1 1 2 2 2 1 2 2 1 1 0 1 1 1
7 8 8 8 6 6 6 5 5 5 3 2 1 1 1 1 2 2 1 1 1 1 1 1 2 2 1 2 1 1 1 1 1 2 2 0 1 2 2 1 1 1 1
Wind_Direction
155 163 141 133 126 119 114 109 107 106 103 102 100 97 96 94 91 91 92 92 91 89 86 84 83 81 82 80 79 75 71 70 67 68 73 81 89 99 100 98 99 100 99
154 154 140 134 129 125 122 118 114 110 106 104 104 103 100 94 90 91 94 93 97 96 92 91 91 89 90 87 83 79 70 63 61 57 57 69 97 114 113 108 107 113 107
141 143 139 135 130 126 121 117 117 118 114 106 102 98 96 93 94 94 94 98 102 106 107 107 106 107 105 106 103 88 65 43 37 30 35 88 148 142 129 121 116 116 113
142 143 139 133 127 123 119 117 114 116 111 104 97 90 79 72 79 90 110 118 136 139 137 143 151 146 145 136 129 118 48 8 9 10 33 171 176 151 144 135 129 124 118
136 138 142 133 128 124 120 117 113 107 102 94 83 70 44 8 340 291 252 236 227 213 192 188 194 192 195 203 202 213 269 307 345 13 6 159 162 161 151 144 135 129 126
139 144 145 139 135 133 131 127 121 115 108 97 77 354 304 299 297 291 269 255 249 240 224 221 225 220 217 227 234 246 268 280 313 348 305 189 179 170 156 150 143 139 135
148 153 154 147 145 144 142 137 131 131 128 112 358 305 293 288 286 281 274 263 258 251 241 236 237 232 224 233 242 248 258 274 268 278 239 198 186 173 162 154 151 149 145
153 159 159 158 156 155 154 153 156 162 174 214 277 289 292 287 284 281 271 263 258 255 252 248 242 240 237 238 247 251 251 263 273 297 255 205 187 173 165 160 157 157 154
153 155 167 172 167 165 167 172 178 193 214 241 271 284 289 289 285 283 276 264 257 256 257 256 252 250 246 243 248 252 252 252 259 263 251 214 191 176 171 168 164 162 157
155 160 172 179 173 171 185 193 194 209 228 253 275 283 286 289 292 289 281 266 257 256 259 261 258 255 250 247 249 249 249 253 248 254 251 225 198 180 177 173 167 165 162
161 168 171 171 172 181 202 217 214 227 247 275 295 296 301 300 297 291 281 266 260 258 261 263 262 259 255 252 250 253 253 225 234 245 241 228 200 185 179 177 173 171 170
168 170 160 154 160 169 194 183 242 251 287 293 290 298 306 295 293 300 288 278 271 267 269 266 266 265 260 254 257 257 246 238 238 238 235 226 204 190 183 179 177 176 173
165 153 143 151 154 154 160 161 189 339 295 287 291 301 311 330 324 336 324 317 315 300 294 291 297 285 253 232 234 236 231 227 240 243 237 224 207 193 183 178 176 177 174
153 148 141 140 138 139 120 114 136 130 173 313 323 348 4 352 343 337 333 320 321 314 298 295 282 267 252 243 230 232 229 223 235 232 234 223 212 197 186 182 181 178 177
150 150 145 138 131 124 102 87 91 102 91 44 11 9 26 22 349 348 345 338 333 337 317 302 286 268 254 247 234 228 224 214 220 230 241 231 214 201 192 187 183 180 180
156 154 142 127 128 120 108 102 105 96 87 61 35 27 36 40 22 11 356 351 340 331 324 306 313 259 243 233 254 244 232 203 211 224 231 238 218 205 200 195 189 185 183
159 152 141 132 126 119 114 108 104 100 95 73 45 33 37 35 30 30 13 354 336 337 349 1 357 4 349 350 278 255 238 213 207 213 231 236 221 214 209 202 196 190 188
153 151 148 133 129 126 119 108 102 103 96 75 56 42 33 28 33 39 21 351 339 4 13 11 356 360 349 339 287 265 254 226 198 201 217 234 222 212 213 206 201 196 192
155 149 137 131 137 130 113 102 93 89 88 88 72 51 30 30 36 46 26 353 359 19 10 356 16 16 327 322 261 239 250 204 225 230 218 200 207 211 208 210 203 198 198
152 144 137 136 139 124 102 91 72 65 63 69 70 57 44 29 32 42 30 8 15 25 3 359 355 353 319 308 311 0 345 185 241 251 224 174 206 217 192 191 192 202 205
147 144 146 143 145 127 112 115 111 112 167 8 307 70 57 39 35 51 32 16 19 29 2 354 5 7 356 6 48 18 21 42 182 232 225 174 197 205 168 170 178 183 207
157 157 153 152 150 142 143 153 160 163 199 220 295 325 3 37 23 48 50 33 17 27 21 9 34 36 2 32 87 79 32 7 354 25 70 161 191 152 170 184 178 186 186
162 164 162 161 154 152 143 118 86 61 38 21 346 305 296 277 25 41 48 52 33 50 27 4 43 78 34 1 54 111 119 181 323 354 17 45 45 81 165 183 177 176 180
172 163 156 159 154 154 145 135 136 142 171 223 232 257 287 264 258 351 41 51 36 31 23 354 57 84 92 36 360 34 110 155 126 44 356 8 32 58 62 172 171 163 164
164 158 158 154 155 159 154 148 144 158 196 224 249 259 290 295 290 302 30 50 33 21 13 16 38 57 91 101 68 40 47 47 67 115 67 350 356 353 0 103 143 148 157
158 154 154 155 164 167 161 158 160 172 184 184 214 239 273 287 300 293 312 42 30 10 9 18 37 58 76 90 85 77 91 91 79 101 109 27 345 329 349 14 58 108 146